DW4466 Weather Reports


Display with metric or nautical units.
time (UTC)temp
F
wind
direction
speed
MPH
gust
MPH
rain 1hr
in
rain 24hr
in
rain mn
in
humidity
%
barometer
mb
20260509024024 57 280 0.0 0.0 0.00 0.00 0.00 59 1010.2
20260509023554 58 280 0.0 2.0 0.00 0.00 0.00 57 1010.2
20260509023023 58 280 0.0 2.0 0.00 0.00 0.00 56 1010.3
20260509022602 58 280 0.0 2.0 0.00 0.00 0.00 56 1010.3
20260509022032 58 284 0.0 3.0 0.00 0.00 0.00 56 1010.2
20260509021558 58 279 0.0 3.0 0.00 0.00 0.00 55 1010.2
20260509021502 58 279 0.0 3.0 0.00 0.00 0.00 55 1010.2
20260509021033 58 286 0.0 3.0 0.00 0.00 0.00 55 1010.1
20260509020509 58 294 0.0 2.0 0.00 0.00 0.00 55 1010.2
20260509020052 58 300 0.0 0.0 0.00 0.00 0.00 54 1010.2
20260509015517 59 296 0.0 0.0 0.00 0.00 0.00 54 1010.2
20260509015050 59 301 0.0 0.0 0.00 0.00 0.00 54 1010.2
20260509014509 60 267 0.0 0.0 0.00 0.00 0.00 53 1010.2
20260509014041 60 267 0.0 0.0 0.00 0.00 0.00 52 1010.1
20260509013508 60 261 0.0 0.0 0.00 0.00 0.00 51 1010.0
20260509013049 61 262 0.0 0.0 0.00 0.00 0.00 50 1010.0
20260509012514 61 261 0.0 0.0 0.00 0.00 0.00 50 1010.0
20260509012046 61 261 0.0 0.0 0.00 0.00 0.00 49 1010.1
20260509011526 62 261 0.0 0.0 0.00 0.00 0.00 49 1010.1
20260509011057 62 261 0.0 0.0 0.00 0.00 0.00 48 1010.1
20260509010533 62 261 0.0 0.0 0.00 0.00 0.00 48 1010.0
20260509010100 62 261 0.0 2.0 0.00 0.00 0.00 47 1009.9
20260509010008 62 261 0.0 2.0 0.00 0.00 0.00 47 1010.0
20260509005545 63 256 0.0 2.0 0.00 0.00 0.00 47 1009.9
20260509005018 63 256 0.0 3.0 0.00 0.00 0.00 46 1009.9
20260509004546 63 261 1.0 3.0 0.00 0.00 0.00 46 1009.8
20260509004017 64 246 0.0 3.0 0.00 0.00 0.00 45 1009.8
20260509003548 64 226 0.0 3.0 0.00 0.00 0.00 45 1009.8
20260509003006 65 231 1.0 3.0 0.00 0.00 0.00 45 1009.7
20260509002537 65 275 0.0 4.0 0.00 0.00 0.00 43 1009.7
20260509002006 65 252 1.0 5.0 0.00 0.00 0.00 43 1009.7
20260509001538 66 257 1.0 5.0 0.00 0.00 0.00 41 1009.8
20260509001013 66 269 1.0 6.0 0.00 0.00 0.00 40 1009.7
20260509000546 66 292 3.0 6.0 0.00 0.00 0.00 39 1009.6
20260509000100 66 298 0.0 4.0 0.00 0.00 0.00 40 1009.6
20260509000005 66 298 1.0 4.0 0.00 0.00 0.00 40 1009.6
20260508235527 67 263 1.0 4.0 0.00 0.00 0.00 41 1009.6
20260508235057 67 222 0.0 2.0 0.00 0.00 0.00 40 1009.5
20260508234535 67 279 0.0 0.0 0.00 0.00 0.00 38 1009.4
20260508234100 68 279 0.0 2.0 0.00 0.00 0.00 38 1009.3
20260508234001 68 279 0.0 2.0 0.00 0.00 0.00 37 1009.4
20260508233532 68 296 0.0 3.0 0.00 0.00 0.00 38 1009.3
20260508233113 68 268 0.0 3.0 0.00 0.00 0.00 38 1009.2
20260508233002 68 268 0.0 2.0 0.00 0.00 0.00 37 1009.3
20260508232539 69 289 0.0 3.0 0.00 0.00 0.00 37 1009.4
20260508232007 69 291 1.0 3.0 0.00 0.00 0.00 35 1009.2
20260508231539 69 279 1.0 2.0 0.00 0.00 0.00 36 1009.3
20260508231009 69 355 0.0 1.0 0.00 0.00 0.00 36 1009.2
20260508230527 69 357 0.0 2.0 0.00 0.00 0.00 35 1009.2
20260508230107 70 358 0.0 4.0 0.00 0.00 0.00 34 1009.3
20260508230003 70 291 0.0 4.0 0.00 0.00 0.00 34 1009.3
20260508225536 70 302 1.0 5.0 0.00 0.00 0.00 34 1009.2
20260508225052 70 323 0.0 6.0 0.00 0.00 0.00 33 1009.2
20260508224509 71 357 0.0 6.0 0.00 0.00 0.00 33 1009.2
20260508224043 71 325 1.0 6.0 0.00 0.00 0.00 32 1009.1
20260508223513 72 302 2.0 6.0 0.00 0.00 0.00 31 1009.1
20260508223048 72 341 1.0 4.0 0.00 0.00 0.00 32 1009.1
20260508222521 72 324 1.0 6.0 0.00 0.00 0.00 36 1009.0
20260508222034 72 340 2.0 6.0 0.00 0.00 0.00 34 1008.9
20260508221518 71 260 2.0 7.0 0.00 0.00 0.00 33 1009.0
20260508221042 71 276 2.0 7.0 0.00 0.00 0.00 35 1009.0
20260508220514 70 265 0.0 2.0 0.00 0.00 0.00 40 1009.1
20260508220030 70 190 0.0 2.0 0.00 0.00 0.00 37 1009.1
20260508215559 69 217 1.0 3.0 0.00 0.00 0.00 36 1009.1
20260508215502 69 271 0.0 4.0 0.00 0.00 0.00 36 1009.2
20260508215027 69 303 2.0 7.0 0.00 0.00 0.00 34 1009.3
20260508214606 70 309 3.0 8.0 0.00 0.00 0.00 35 1009.3
20260508214501 70 304 2.0 5.0 0.00 0.00 0.00 34 1009.3
20260508214032 70 290 2.0 9.0 0.00 0.00 0.00 35 1009.2
20260508213503 70 38 2.0 9.0 0.00 0.00 0.00 33 1009.2
20260508213035 71 32 2.0 9.0 0.00 0.00 0.00 33 1009.1
20260508212513 70 15 3.0 10.0 0.00 0.00 0.00 34 1009.2
20260508212042 71 38 3.0 10.0 0.00 0.00 0.00 33 1009.2
20260508211511 72 40 2.0 8.0 0.00 0.00 0.00 34 1009.2
20260508211043 71 302 2.0 6.0 0.00 0.00 0.00 35 1009.2
20260508210515 70 300 3.0 9.0 0.00 0.00 0.00 33 1009.2
20260508210049 70 249 2.0 11.0 0.00 0.00 0.00 32 1009.3
20260508205525 70 46 7.0 12.0 0.00 0.00 0.00 33 1009.4
20260508205057 70 69 5.0 16.0 0.00 0.00 0.00 32 1009.3
20260508204535 70 52 10.0 16.0 0.00 0.00 0.00 32 1009.4
20260508204010 70 23 7.0 16.0 0.00 0.00 0.00 35 1009.4
20260508203521 70 34 9.0 16.0 0.00 0.00 0.00 33 1009.5
20260508203054 70 38 5.0 14.0 0.00 0.00 0.00 37 1009.5
20260508202524 70 8 6.0 12.0 0.00 0.00 0.00 33 1009.4
20260508202056 69 45 6.0 11.0 0.00 0.00 0.00 34 1009.6
20260508201531 70 46 7.0 14.0 0.00 0.00 0.00 32 1009.6
20260508201045 70 23 9.0 14.0 0.00 0.00 0.00 32 1009.7
20260508200515 70 246 2.0 11.0 0.00 0.00 0.00 31 1009.7
20260508200055 70 23 5.0 11.0 0.00 0.00 0.00 32 1010.0
20260508195518 70 23 4.0 10.0 0.00 0.00 0.00 35 1009.9
20260508195049 69 72 5.0 10.0 0.00 0.00 0.00 33 1009.9
20260508194505 69 3 3.0 15.0 0.00 0.00 0.00 36 1010.0
20260508194030 69 228 7.0 15.0 0.00 0.00 0.00 35 1010.2
20260508193507 69 65 7.0 14.0 0.00 0.00 0.00 34 1010.2
20260508193036 69 94 6.0 14.0 0.00 0.00 0.00 35 1010.2
20260508192507 69 29 5.0 12.0 0.00 0.00 0.00 37 1010.3
20260508192041 69 5 5.0 10.0 0.00 0.00 0.00 32 1010.6
20260508191511 68 311 2.0 12.0 0.00 0.00 0.00 37 1010.6
20260508191042 68 298 4.0 12.0 0.00 0.00 0.00 33 1010.8
20260508190511 68 313 5.0 12.0 0.00 0.00 0.00 36 1010.9
20260508190049 68 42 5.0 11.0 0.00 0.00 0.00 37 1011.0
20260508185601 68 335 5.0 11.0 0.00 0.00 0.00 34 1011.0
20260508185503 68 18 4.0 14.0 0.00 0.00 0.00 35 1010.9
20260508185035 67 315 5.0 16.0 0.00 0.00 0.00 37 1011.1
20260508184505 67 27 8.0 16.0 0.00 0.00 0.00 36 1011.2
20260508184036 67 42 4.0 14.0 0.00 0.00 0.00 35 1011.3
20260508183509 67 56 6.0 21.0 0.00 0.00 0.00 33 1011.4
20260508183047 68 323 7.0 21.0 0.00 0.00 0.00 36 1011.3
20260508182517 67 41 7.0 13.0 0.00 0.00 0.00 37 1011.3
20260508182051 67 61 4.0 13.0 0.00 0.00 0.00 39 1011.3
20260508181520 67 286 5.0 14.0 0.00 0.00 0.00 37 1011.4
20260508181052 67 356 8.0 17.0 0.00 0.00 0.00 36 1011.4
20260508180511 67 13 6.0 24.0 0.00 0.00 0.00 36 1011.7
20260508180039 67 8 6.0 24.0 0.00 0.00 0.00 36 1011.6
20260508175511 67 9 5.0 14.0 0.00 0.00 0.00 37 1011.5
20260508175046 67 69 8.0 14.0 0.00 0.00 0.00 36 1011.7
20260508174558 67 356 10.0 14.0 0.00 0.00 0.00 35 1011.9
20260508174500 67 26 9.0 14.0 0.00 0.00 0.00 36 1012.0
20260508174034 66 63 3.0 14.0 0.00 0.00 0.00 39 1011.9
20260508173505 65 10 5.0 15.0 0.00 0.00 0.00 41 1011.7
20260508173036 66 34 7.0 16.0 0.00 0.00 0.00 37 1011.7
20260508172504 67 35 7.0 16.0 0.00 0.00 0.00 37 1011.8
20260508172014 66 360 6.0 14.0 0.00 0.00 0.00 37 1011.7
20260508171555 66 120 4.0 14.0 0.00 0.00 0.00 36 1011.8
20260508171022 66 58 9.0 14.0 0.00 0.00 0.00 38 1012.2
20260508170552 66 34 9.0 15.0 0.00 0.00 0.00 38 1012.3
20260508170004 65 25 11.0 20.0 0.00 0.00 0.00 37 1012.2
20260508165536 65 29 13.0 20.0 0.00 0.00 0.00 38 1012.3
20260508165006 65 54 8.0 20.0 0.00 0.00 0.00 40 1012.5
20260508164540 65 346 8.0 20.0 0.00 0.00 0.00 38 1012.4
20260508164053 65 69 6.0 16.0 0.00 0.00 0.00 47 1012.5
20260508163524 65 89 9.0 16.0 0.00 0.00 0.00 39 1012.5
20260508163058 65 9 5.0 10.0 0.00 0.00 0.00 42 1012.5
20260508162526 64 280 5.0 14.0 0.00 0.00 0.00 42 1012.6
20260508162101 64 44 6.0 14.0 0.00 0.00 0.00 41 1012.7
20260508161520 64 50 5.0 15.0 0.00 0.00 0.00 43 1012.7
20260508161048 64 40 8.0 15.0 0.00 0.00 0.00 40 1012.8
20260508160522 63 71 10.0 19.0 0.00 0.00 0.00 45 1012.8
20260508160057 63 48 5.0 18.0 0.00 0.00 0.00 43 1012.8
20260508155538 63 40 9.0 18.0 0.00 0.00 0.00 43 1013.1
20260508155048 63 57 10.0 17.0 0.00 0.00 0.00 45 1013.0
20260508154522 63 40 8.0 17.0 0.00 0.00 0.00 43 1013.0
20260508154054 63 33 9.0 17.0 0.00 0.00 0.00 44 1013.0
20260508153532 63 21 12.0 17.0 0.00 0.00 0.00 44 1013.0
20260508153058 63 79 5.0 10.0 0.00 0.00 0.00 47 1013.3
20260508153002 63 46 5.0 14.0 0.00 0.00 0.00 47 1013.2
20260508152532 62 38 6.0 19.0 0.00 0.00 0.00 44 1013.2
20260508152058 62 13 9.0 19.0 0.00 0.00 0.00 43 1013.3
20260508151530 62 18 7.0 16.0 0.00 0.00 0.00 49 1013.3
20260508151100 62 27 9.0 16.0 0.00 0.00 0.00 43 1013.3
20260508151004 62 34 9.0 16.0 0.00 0.00 0.00 43 1013.4
20260508150535 62 43 7.0 13.0 0.00 0.00 0.00 48 1013.5
20260508150006 61 20 8.0 16.0 0.00 0.00 0.00 42 1013.8
20260508145534 61 31 7.0 17.0 0.00 0.00 0.00 42 1013.7
20260508145006 61 348 9.0 17.0 0.00 0.00 0.00 40 1013.7
20260508144539 61 32 7.0 15.0 0.00 0.00 0.00 43 1013.7
20260508144010 61 310 6.0 15.0 0.00 0.00 0.00 43 1013.7
20260508143544 61 36 9.0 13.0 0.00 0.00 0.00 42 1013.7
20260508143012 61 50 4.0 16.0 0.00 0.00 0.00 46 1013.8
20260508142544 60 19 4.0 16.0 0.00 0.00 0.00 44 1013.8
20260508142018 60 270 3.0 10.0 0.00 0.00 0.00 46 1013.8
20260508141552 60 313 5.0 10.0 0.00 0.00 0.00 46 1013.8
20260508141027 60 42 4.0 10.0 0.00 0.00 0.00 45 1013.8
20260508140553 60 324 2.0 12.0 0.00 0.00 0.00 49 1013.7
20260508140012 59 323 1.0 12.0 0.00 0.00 0.00 52 1013.8
20260508135548 58 319 2.0 12.0 0.00 0.00 0.00 49 1014.0
20260508135020 58 310 3.0 8.0 0.00 0.00 0.00 48 1014.0
20260508134546 58 1 1.0 9.0 0.00 0.00 0.00 50 1014.0
20260508134015 57 283 2.0 8.0 0.00 0.00 0.00 49 1014.0
20260508133546 57 47 2.0 8.0 0.00 0.00 0.00 52 1014.2
20260508133024 57 268 3.0 8.0 0.00 0.00 0.00 50 1014.3
20260508132547 56 327 2.0 7.0 0.00 0.00 0.00 53 1014.3
20260508132018 56 4 1.0 6.0 0.00 0.00 0.00 55 1014.3
20260508131559 55 315 1.0 6.0 0.00 0.00 0.00 54 1014.3
20260508131010 55 343 0.0 4.0 0.00 0.00 0.00 58 1014.3
20260508130538 55 281 0.0 4.0 0.00 0.00 0.00 59 1014.4
20260508130005 55 283 2.0 6.0 0.00 0.00 0.00 61 1014.3
20260508125540 54 283 2.0 7.0 0.00 0.00 0.00 62 1014.4
20260508125014 54 333 3.0 7.0 0.00 0.00 0.00 63 1014.5
20260508124549 53 310 1.0 5.0 0.00 0.00 0.00 65 1014.5
20260508124018 53 3 2.0 5.0 0.00 0.00 0.00 65 1014.5
20260508123554 52 284 1.0 4.0 0.00 0.00 0.00 67 1014.5
20260508123020 51 302 0.0 2.0 0.00 0.00 0.00 75 1014.5
20260508122555 50 339 0.0 3.0 0.00 0.00 0.00 78 1014.5
20260508122029 49 335 0.0 3.0 0.00 0.00 0.00 75 1014.5
20260508121556 49 38 0.0 3.0 0.00 0.00 0.00 77 1014.4
20260508121013 48 286 0.0 3.0 0.00 0.00 0.00 76 1014.4
20260508120543 47 335 0.0 3.0 0.00 0.00 0.00 78 1014.4
20260508120014 46 293 0.0 2.0 0.00 0.00 0.00 78 1014.3
20260508115546 45 294 0.0 2.0 0.00 0.00 0.00 81 1014.2
20260508115013 44 294 0.0 2.0 0.00 0.00 0.00 82 1014.3
20260508114527 43 317 0.0 0.0 0.00 0.00 0.00 86 1014.1
20260508114100 42 317 0.0 0.0 0.00 0.00 0.00 86 1014.2
20260508114003 42 317 0.0 0.0 0.00 0.00 0.00 86 1014.2
20260508113538 42 317 0.0 0.0 0.00 0.00 0.00 87 1014.2
20260508113009 41 317 0.0 0.0 0.00 0.00 0.00 87 1014.1
20260508112525 41 317 0.0 0.0 0.00 0.00 0.00 86 1014.0
20260508112003 40 317 0.0 0.0 0.00 0.00 0.00 85 1013.9
20260508111533 40 317 0.0 0.0 0.00 0.00 0.00 85 1013.9
20260508111005 39 317 0.0 0.0 0.00 0.00 0.00 86 1013.9
20260508110535 39 317 0.0 0.0 0.00 0.00 0.00 86 1013.9
20260508110012 39 317 0.0 0.0 0.00 0.00 0.00 86 1013.7
20260508105546 39 317 0.0 0.0 0.00 0.00 0.00 86 1013.6
20260508105010 38 317 0.0 0.0 0.00 0.00 0.00 85 1013.6
20260508104613 38 317 0.0 0.0 0.00 0.00 0.00 84 1013.5
20260508104009 39 317 0.0 0.0 0.00 0.00 0.00 84 1013.5
20260508103543 39 317 0.0 0.0 0.00 0.00 0.00 83 1013.4
20260508103020 39 317 0.0 0.0 0.00 0.00 0.00 84 1013.3
20260508102549 39 317 0.0 0.0 0.00 0.00 0.00 84 1013.3
20260508102021 40 317 0.0 0.0 0.00 0.00 0.00 84 1013.2
20260508101554 40 317 0.0 0.0 0.00 0.00 0.00 84 1013.2
20260508101031 40 317 0.0 0.0 0.00 0.00 0.00 81 1013.1
20260508100541 40 317 0.0 0.0 0.00 0.00 0.00 81 1013.1
20260508100014 40 284 0.0 1.0 0.00 0.00 0.00 82 1013.2
20260508095548 40 235 0.0 2.0 0.00 0.00 0.00 82 1013.1
20260508095023 40 235 1.0 2.0 0.00 0.00 0.00 82 1013.2
20260508094557 41 235 0.0 2.0 0.00 0.00 0.00 81 1013.0
20260508094010 41 235 1.0 2.0 0.00 0.00 0.00 81 1013.1
20260508093543 41 235 0.0 2.0 0.00 0.00 0.00 80 1012.9
20260508093014 42 235 0.0 2.0 0.00 0.00 0.00 78 1012.9
20260508092547 42 235 0.0 1.0 0.00 0.00 0.00 76 1012.8
20260508092014 42 235 0.0 3.0 0.00 0.00 0.00 75 1012.8
20260508091528 43 235 1.0 3.0 0.00 0.00 0.00 75 1012.8
20260508091005 43 231 2.0 3.0 0.00 0.00 0.00 74 1012.6
20260508090540 43 232 2.0 3.0 0.00 0.00 0.00 73 1012.6
20260508090015 44 32 0.0 0.0 0.00 0.00 0.00 72 1012.5
20260508085544 44 32 0.0 0.0 0.00 0.00 0.00 73 1012.5
20260508085004 44 32 0.0 0.0 0.00 0.00 0.00 73 1012.5
20260508084537 44 32 0.0 0.0 0.00 0.00 0.00 74 1012.6
20260508084005 45 32 0.0 0.0 0.00 0.00 0.00 70 1012.6
20260508083536 45 32 0.0 0.0 0.00 0.00 0.00 70 1012.5
20260508083011 45 32 0.0 0.0 0.00 0.00 0.00 69 1012.5
20260508082544 45 32 0.0 0.0 0.00 0.00 0.00 68 1012.5
20260508082013 45 32 0.0 0.0 0.00 0.00 0.00 71 1012.5
20260508081553 45 32 0.0 0.0 0.00 0.00 0.00 67 1012.6
20260508081014 46 32 0.0 2.0 0.00 0.00 0.00 66 1012.6
20260508080545 46 32 0.0 3.0 0.00 0.00 0.00 66 1012.5
20260508080110 47 32 1.0 3.0 0.00 0.00 0.00 68 1012.4
20260508075525 47 32 2.0 4.0 0.00 0.00 0.00 66 1012.4
20260508075056 47 50 2.0 4.0 0.00 0.00 0.00 64 1012.2
20260508074532 48 44 1.0 3.0 0.00 0.00 0.00 64 1012.3
20260508074059 48 44 1.0 3.0 0.00 0.00 0.00 62 1012.2
20260508074001 48 57 1.0 3.0 0.00 0.00 0.00 62 1012.2
20260508073526 48 57 1.0 3.0 0.00 0.00 0.00 60 1012.2
20260508073101 49 36 1.0 3.0 0.00 0.00 0.00 61 1012.2
20260508072532 50 25 2.0 3.0 0.00 0.00 0.00 61 1012.1
20260508072002 50 48 0.0 2.0 0.00 0.00 0.00 59 1012.0
20260508071529 50 67 1.0 2.0 0.00 0.00 0.00 57 1011.9
20260508071002 50 69 1.0 3.0 0.00 0.00 0.00 57 1011.8
20260508070538 51 96 0.0 3.0 0.00 0.00 0.00 57 1011.7
20260508070018 51 113 0.0 3.0 0.00 0.00 0.00 57 1011.7
20260508065546 51 52 0.0 6.0 0.00 0.00 0.00 56 1011.5
20260508065100 51 39 2.0 6.0 0.00 0.00 0.00 57 1011.5
20260508065004 51 26 2.0 6.0 0.00 0.00 0.00 56 1011.5
20260508064538 51 42 2.0 6.0 0.00 0.00 0.00 56 1011.4
20260508064007 51 32 2.0 7.0 0.00 0.00 0.00 56 1011.3
20260508063540 51 63 2.0 6.0 0.00 0.00 0.00 56 1011.4
20260508063056 51 48 2.0 4.0 0.00 0.00 0.00 56 1011.3
20260508062526 51 26 2.0 4.0 0.00 0.00 0.00 56 1011.3
20260508062056 51 44 2.0 6.0 0.00 0.00 0.00 56 1011.2
20260508061534 52 33 3.0 6.0 0.00 0.00 0.00 56 1011.3
20260508061100 52 51 2.0 6.0 0.00 0.00 0.00 55 1011.2
20260508060518 52 52 3.0 5.0 0.00 0.00 0.00 55 1011.2
20260508060052 52 69 3.0 5.0 0.00 0.00 0.00 56 1011.2
20260508055526 52 41 4.0 6.0 0.00 0.00 0.00 55 1011.2
20260508055100 52 75 2.0 6.0 0.00 0.00 0.00 55 1011.2
20260508055002 52 88 2.0 6.0 0.00 0.00 0.00 55 1011.2
20260508054532 52 48 2.0 5.0 0.00 0.00 0.00 55 1011.2
20260508054101 53 57 3.0 7.0 0.00 0.00 0.00 55 1011.2
20260508054003 53 59 3.0 7.0 0.00 0.00 0.00 55 1011.2
20260508053532 53 43 3.0 8.0 0.00 0.00 0.00 55 1011.2
20260508053006 53 50 3.0 8.0 0.00 0.00 0.00 55 1011.2
20260508052540 53 42 5.0 9.0 0.00 0.00 0.00 54 1011.2
20260508052010 53 59 5.0 9.0 0.00 0.00 0.00 54 1011.1
20260508051542 53 40 5.0 9.0 0.00 0.00 0.00 55 1011.1
20260508051012 53 46 4.0 8.0 0.00 0.00 0.00 55 1011.0
20260508050540 53 47 4.0 8.0 0.00 0.00 0.00 55 1011.0
20260508050015 53 64 3.0 7.0 0.00 0.00 0.00 56 1010.8
20260508045545 53 52 3.0 8.0 0.00 0.00 0.00 56 1010.8
20260508045014 53 45 5.0 9.0 0.00 0.00 0.00 56 1010.7
20260508044550 53 29 5.0 9.0 0.00 0.00 0.00 58 1010.6
20260508044022 53 36 3.0 7.0 0.00 0.00 0.00 58 1010.7
20260508043538 53 48 2.0 7.0 0.00 0.00 0.00 58 1010.6
20260508043012 53 38 3.0 7.0 0.00 0.00 0.00 58 1010.6
20260508042546 53 50 3.0 7.0 0.00 0.00 0.00 59 1010.6
20260508042015 53 46 3.0 6.0 0.00 0.00 0.00 60 1010.5
20260508041550 53 54 3.0 6.0 0.00 0.00 0.00 61 1010.4
20260508041006 52 75 3.0 7.0 0.00 0.00 0.00 64 1010.3
20260508040538 51 57 3.0 7.0 0.00 0.00 0.00 67 1010.2
20260508040021 50 67 4.0 7.0 0.00 0.00 0.00 71 1010.1
20260508035540 49 73 3.0 5.0 0.00 0.00 0.00 77 1010.0
20260508035012 49 73 2.0 4.0 0.00 0.00 0.00 85 1009.9
20260508034546 49 56 1.0 4.0 0.00 0.00 0.00 87 1009.8
20260508034059 49 292 0.0 1.0 0.00 0.00 0.00 86 1009.8
20260508034003 49 292 0.0 1.0 0.00 0.00 0.00 86 1009.8
20260508033530 49 292 0.0 1.0 0.00 0.00 0.00 86 1009.8
20260508033009 49 292 0.0 2.0 0.00 0.00 0.00 86 1009.7
20260508032540 50 292 0.0 3.0 0.00 0.00 0.00 85 1009.8
20260508032010 50 292 0.0 3.0 0.00 0.00 0.00 85 1009.7
20260508031545 50 287 0.0 4.0 0.00 0.00 0.00 84 1009.6
20260508031013 51 302 2.0 4.0 0.00 0.00 0.00 84 1009.6
20260508030546 51 301 1.0 4.0 0.00 0.00 0.00 83 1009.4
20260508030013 51 298 1.0 3.0 0.00 0.00 0.00 83 1009.4
20260508025545 51 290 0.0 3.0 0.00 0.00 0.00 82 1009.4
20260508025013 51 294 1.0 4.0 0.00 0.00 0.00 82 1009.4
20260508024555 52 242 2.0 4.0 0.00 0.00 0.00 82 1009.4